Location: Melbourne
(37.8170°S, 144.9670°E)
Time: 11:15:53
(UTC+11:00)

Aureole 2 Rocket - Visible Passes

Search period start: 29 January 2015 00:00
Search period end: 08 February 2015 00:00
Orbit: 344 x 716 km, 73.9° (Epoch: 27 January)

Date Brightness Start Highest point End Pass type
(mag) Time Alt. Az. Time Alt. Az. Time Alt. Az.
29 Jan 4.1 23:30:16 10° S 23:33:02 39° SSE 23:33:02 39° SSE visible
30 Jan 3.8 23:19:19 10° S 23:22:25 45° SSE 23:22:25 45° SSE visible
31 Jan 3.5 23:08:19 10° S 23:11:47 53° SSE 23:11:47 53° SSE visible
01 Feb 3.2 22:57:16 10° SSW 23:01:09 62° SE 23:01:09 62° SE visible
02 Feb 3.0 22:46:11 10° SSW 22:50:28 67° ESE 22:50:31 67° ESE visible
03 Feb 3.0 22:35:04 10° SSW 22:39:23 69° ESE 22:39:53 63° ENE visible
04 Feb 3.1 22:23:53 10° SSW 22:28:16 71° ESE 22:29:15 53° NE visible
05 Feb 3.1 22:12:40 10° SSW 22:17:06 73° ESE 22:18:38 42° NE visible
06 Feb 3.1 22:01:25 10° SSW 22:05:53 75° ESE 22:08:02 32° NNE visible
07 Feb 3.1 21:50:07 10° SSW 21:54:37 77° ESE 21:57:27 25° NNE visible
